| time (UTC) | temp F | wind direction | speed MPH | gust MPH | rain 1hr in | rain 24hr in | rain mn in | humidity % | barometer mb |
| 20260831175002 | 63 | 276 | 0.0 | 2.0 | 0.00 | 0.00 | 0.52 | 100 | 1018.3 |
| 20260831173502 | 63 | 247 | 4.0 | 4.0 | 0.00 | 0.00 | 0.52 | 100 | 1017.9 |
| 20260831172501 | 63 | 167 | 0.0 | 4.0 | 0.00 | 0.00 | 0.52 | 100 | 1018.3 |
| 20260831171001 | 63 | 32 | 0.0 | 5.0 | 0.00 | 0.00 | 0.52 | 100 | 1018.3 |
| 20260831165502 | 63 | 325 | 1.0 | 3.0 | 0.00 | 0.00 | 0.52 | 100 | 1018.3 |
| 20260831163902 | 63 | 276 | 0.0 | 4.0 | 0.00 | 0.00 | 0.52 | 100 | 1018.3 |
| 20260831162901 | 63 | 244 | 3.0 | 4.0 | 0.00 | 0.00 | 0.52 | 100 | 1018.3 |
| 20260831161502 | 63 | 332 | 0.0 | 7.0 | 0.00 | 0.00 | 0.52 | 100 | 1018.3 |
| 20260831160003 | 63 | 203 | 0.0 | 0.0 | 0.00 | 0.00 | 0.52 | 100 | 1019.0 |
| 20260831154902 | 63 | 251 | 0.0 | 3.0 | 0.00 | 0.00 | 0.52 | 100 | 1019.0 |
| 20260831153501 | 63 | 297 | 0.0 | 0.0 | 0.00 | 0.00 | 0.52 | 100 | 1019.0 |
| 20260831152001 | 63 | 228 | 0.0 | 3.0 | 0.08 | 0.00 | 0.52 | 100 | 1019.0 |
| 20260831150502 | 63 | 187 | 3.0 | 4.0 | 0.19 | 0.00 | 0.52 | 100 | 1019.0 |
| 20260831145501 | 63 | 90 | 1.0 | 1.0 | 0.20 | 0.00 | 0.52 | 100 | 1018.6 |
| 20260831144402 | 63 | 68 | 0.0 | 1.0 | 0.21 | 0.00 | 0.52 | 100 | 1019.0 |
| 20260831143002 | 63 | 93 | 0.0 | 4.0 | 0.20 | 0.00 | 0.50 | 100 | 1018.6 |
| 20260831141502 | 63 | 101 | 0.0 | 0.0 | 0.14 | 0.00 | 0.40 | 100 | 1019.0 |
| 20260831135002 | 63 | 277 | 0.0 | 0.0 | 0.10 | 0.00 | 0.31 | 100 | 1019.0 |
| 20260831133502 | 63 | 202 | 0.0 | 0.0 | 0.10 | 0.00 | 0.30 | 100 | 1019.0 |
| 20260831132001 | 63 | 261 | 0.0 | 0.0 | 0.06 | 0.00 | 0.25 | 100 | 1019.0 |
| 20260831130502 | 63 | 314 | 0.0 | 0.0 | 0.03 | 0.00 | 0.22 | 100 | 1019.0 |
| 20260831125003 | 63 | 15 | 0.0 | 0.0 | 0.01 | 0.00 | 0.20 | 100 | 1018.6 |
| 20260831124002 | 63 | 195 | 0.0 | 0.0 | 0.01 | 0.00 | 0.20 | 100 | 1018.6 |
| 20260831122502 | 63 | 267 | 0.0 | 0.0 | 0.00 | 0.00 | 0.19 | 100 | 1018.6 |
| 20260831121001 | 63 | 66 | 0.0 | 2.0 | 0.01 | 0.00 | 0.19 | 100 | 1019.0 |
| 20260831115502 | 63 | 174 | 0.0 | 0.0 | 0.01 | 0.00 | 0.19 | 100 | 1018.6 |
| 20260831114003 | 63 | 164 | 0.0 | 0.0 | 0.02 | 0.00 | 0.19 | 100 | 1018.6 |
| 20260831112502 | 63 | 204 | 0.0 | 0.0 | 0.01 | 0.00 | 0.18 | 100 | 1018.6 |
| 20260831111501 | 63 | 73 | 0.0 | 0.0 | 0.01 | 0.00 | 0.18 | 100 | 1019.0 |
| 20260831110003 | 63 | 354 | 0.0 | 0.0 | 0.02 | 0.00 | 0.18 | 100 | 1019.0 |
| 20260831104902 | 63 | 337 | 0.0 | 0.0 | 0.02 | 0.00 | 0.18 | 100 | 1019.0 |
| 20260831103402 | 63 | 323 | 0.0 | 0.0 | 0.01 | 0.00 | 0.17 | 100 | 1019.0 |
| 20260831102001 | 63 | 316 | 0.0 | 0.0 | 0.01 | 0.00 | 0.17 | 100 | 1019.0 |
| 20260831100402 | 63 | 314 | 0.0 | 0.0 | 0.00 | 0.00 | 0.16 | 100 | 1019.0 |
| 20260831095401 | 63 | 311 | 0.0 | 0.0 | 0.00 | 0.00 | 0.16 | 100 | 1019.0 |
| 20260831093902 | 63 | 236 | 0.0 | 0.0 | 0.00 | 0.00 | 0.16 | 100 | 1019.0 |
| 20260831092402 | 63 | 351 | 0.0 | 0.0 | 0.00 | 0.00 | 0.16 | 100 | 1019.0 |
| 20260831074501 | 63 | 245 | 0.0 | 0.0 | 0.04 | 0.00 | 0.16 | 100 | 1019.6 |
| 20260831072902 | 63 | 153 | 0.0 | 0.0 | 0.03 | 0.00 | 0.15 | 100 | 1019.6 |
| 20260831071402 | 63 | 310 | 0.0 | 0.0 | 0.02 | 0.00 | 0.14 | 100 | 1020.0 |
| 20260831070003 | 63 | 313 | 0.0 | 0.0 | 0.01 | 0.00 | 0.12 | 100 | 1020.0 |
| 20260831064402 | 63 | 120 | 0.0 | 0.0 | 0.04 | 0.00 | 0.12 | 100 | 1019.6 |
| 20260831063002 | 63 | 326 | 0.0 | 0.0 | 0.04 | 0.00 | 0.12 | 100 | 1020.0 |
| 20260831061902 | 63 | 21 | 0.0 | 0.0 | 0.04 | 0.00 | 0.12 | 100 | 1020.0 |
| 20260831060402 | 63 | 310 | 0.0 | 0.0 | 0.03 | 0.00 | 0.11 | 100 | 1020.0 |
| 20260831055002 | 63 | 301 | 0.0 | 0.0 | 0.00 | 0.00 | 0.08 | 100 | 1020.0 |
| 20260831053502 | 63 | 150 | 1.0 | 1.0 | 0.00 | 0.00 | 0.08 | 100 | 1020.0 |
| 20260831052402 | 63 | 274 | 0.0 | 0.0 | 0.01 | 0.00 | 0.08 | 100 | 1020.0 |
| 20260831051002 | 63 | 289 | 0.0 | 0.0 | 0.05 | 0.00 | 0.08 | 100 | 1020.3 |
| 20260831045501 | 63 | 317 | 0.0 | 1.0 | 0.08 | 0.00 | 0.08 | 100 | 1020.0 |
| 20260831044401 | 63 | 259 | 0.0 | 0.0 | 0.08 | 0.00 | 0.08 | 100 | 1020.3 |
| 20260831042902 | 63 | 249 | 0.0 | 0.0 | 0.07 | 0.00 | 0.07 | 100 | 1020.0 |
| 20260831041901 | 63 | 269 | 0.0 | 0.0 | 0.05 | 0.00 | 0.05 | 100 | 1020.0 |
| 20260831040402 | 63 | 327 | 0.0 | 0.0 | 0.00 | 0.00 | 0.00 | 100 | 1020.3 |
| 20260831035502 | 63 | 64 | 0.0 | 0.0 | 0.00 | 0.00 | 0.10 | 100 | 1020.0 |
| 20260831034002 | 63 | 201 | 0.0 | 0.0 | 0.00 | 0.00 | 0.10 | 100 | 1020.0 |
| 20260831032501 | 63 | 126 | 0.0 | 0.0 | 0.00 | 0.00 | 0.10 | 100 | 1020.0 |
| 20260831031402 | 63 | 307 | 0.0 | 0.0 | 0.00 | 0.00 | 0.10 | 100 | 1020.0 |
| 20260831030003 | 63 | 314 | 0.0 | 0.0 | 0.01 | 0.00 | 0.10 | 100 | 1020.0 |
| 20260831024503 | 63 | 308 | 0.0 | 0.0 | 0.01 | 0.00 | 0.10 | 100 | 1020.0 |
| 20260831023003 | 63 | 173 | 0.0 | 3.0 | 0.01 | 0.00 | 0.10 | 100 | 1020.0 |
| 20260831021501 | 63 | 221 | 2.0 | 2.0 | 0.01 | 0.00 | 0.10 | 100 | 1020.0 |
| 20260831020002 | 63 | 233 | 4.0 | 4.0 | 0.00 | 0.00 | 0.09 | 100 | 1020.0 |
| 20260831014502 | 63 | 302 | 0.0 | 0.0 | 0.00 | 0.00 | 0.09 | 100 | 1020.0 |
| 20260831013002 | 63 | 263 | 0.0 | 0.0 | 0.00 | 0.00 | 0.09 | 100 | 1020.0 |
| 20260831011502 | 63 | 355 | 0.0 | 0.0 | 0.00 | 0.00 | 0.09 | 100 | 1020.0 |
| 20260831005902 | 63 | 317 | 0.0 | 0.0 | 0.00 | 0.00 | 0.09 | 100 | 1020.0 |
| 20260831004502 | 63 | 60 | 0.0 | 3.0 | 0.00 | 0.00 | 0.09 | 100 | 1020.0 |
| 20260831003501 | 63 | 253 | 0.0 | 2.0 | 0.00 | 0.00 | 0.09 | 100 | 1020.0 |
| 20260831002002 | 63 | 238 | 0.0 | 0.0 | 0.01 | 0.00 | 0.09 | 100 | 1020.0 |
| 20260831000502 | 63 | 312 | 0.0 | 0.0 | 0.01 | 0.00 | 0.09 | 100 | 1020.0 |
| 20260830235502 | 63 | 300 | 0.0 | 0.0 | 0.02 | 0.00 | 0.09 | 100 | 1020.0 |
| 20260830234003 | 63 | 158 | 0.0 | 0.0 | 0.02 | 0.00 | 0.08 | 100 | 1020.0 |
| 20260830232502 | 63 | 243 | 0.0 | 0.0 | 0.02 | 0.00 | 0.08 | 100 | 1020.0 |
| 20260830231002 | 63 | 251 | 0.0 | 0.0 | 0.01 | 0.00 | 0.07 | 100 | 1020.0 |
| 20260830225501 | 63 | 315 | 0.0 | 0.0 | 0.00 | 0.00 | 0.06 | 100 | 1020.0 |
| 20260830224401 | 63 | 320 | 0.0 | 0.0 | 0.01 | 0.00 | 0.06 | 100 | 1020.0 |
| 20260830223002 | 63 | 328 | 0.0 | 0.0 | 0.01 | 0.00 | 0.06 | 100 | 1020.0 |
| 20260830221402 | 63 | 303 | 0.0 | 0.0 | 0.01 | 0.00 | 0.06 | 100 | 1020.0 |
| 20260830215902 | 63 | 311 | 0.0 | 0.0 | 0.01 | 0.00 | 0.06 | 100 | 1020.0 |
| 20260830214402 | 63 | 303 | 0.0 | 0.0 | 0.00 | 0.00 | 0.05 | 100 | 1020.0 |
| 20260830213001 | 63 | 250 | 2.0 | 3.0 | 0.00 | 0.00 | 0.05 | 100 | 1020.0 |
| 20260830211402 | 63 | 275 | 0.0 | 1.0 | 0.00 | 0.00 | 0.05 | 100 | 1019.6 |
| 20260830210003 | 63 | 272 | 0.0 | 2.0 | 0.00 | 0.00 | 0.05 | 100 | 1020.0 |
| 20260830205001 | 63 | 259 | 0.0 | 2.0 | 0.00 | 0.00 | 0.05 | 100 | 1020.0 |
| 20260830203402 | 63 | 279 | 0.0 | 0.0 | 0.00 | 0.00 | 0.05 | 100 | 1020.0 |
| 20260830202401 | 63 | 310 | 0.0 | 3.0 | 0.00 | 0.00 | 0.05 | 100 | 1020.3 |
| 20260830201001 | 63 | 275 | 3.0 | 3.0 | 0.01 | 0.00 | 0.05 | 100 | 1020.3 |
| 20260830195502 | 63 | 266 | 2.0 | 2.0 | 0.01 | 0.00 | 0.05 | 100 | 1020.3 |
| 20260830194402 | 63 | 320 | 0.0 | 2.0 | 0.01 | 0.00 | 0.05 | 100 | 1020.3 |
| 20260830192902 | 63 | 291 | 1.0 | 3.0 | 0.01 | 0.00 | 0.05 | 100 | 1020.3 |
| 20260830191502 | 63 | 262 | 3.0 | 5.0 | 0.01 | 0.00 | 0.04 | 100 | 1020.3 |
| 20260830190002 | 63 | 319 | 0.0 | 3.0 | 0.01 | 0.00 | 0.04 | 100 | 1020.7 |
| 20260830184502 | 63 | 311 | 2.0 | 3.0 | 0.02 | 0.00 | 0.04 | 100 | 1020.7 |
| 20260830183021 | 63 | 275 | 2.0 | 3.0 | 0.02 | 0.00 | 0.04 | 100 | 1021.0 |
| 20260830181501 | 63 | 257 | 5.0 | 7.0 | 0.01 | 0.00 | 0.03 | 100 | 1021.0 |
| 20260830180002 | 63 | 251 | 2.0 | 8.0 | 0.01 | 0.00 | 0.03 | 100 | 1020.7 |